Hourly Data Report for August 02, 2015

All times are specified in Local Standard Time (LST). Add 1 hour to adjust for Daylight Saving Time where and when it is observed.

TORONTO INTL A
ONTARIO

43°40'36.000" N
79°37'50.000" W
173.40 m
6158731
71624
YYZ

Download Data

Hourly Data (August 2015)
Hourly Data Report for August 2, 2015
Temp Definition
°C
Dew Point Temp Definition
°C
Rel Hum Definition
%
Wind Dir Definition
10's deg

Wind Spd Definition
km/h
Visibility Definition
km
Stn Press Definition
kPa
Hmdx Definition


Wind Chill Definition


Weather Definition


TIME
00:00 Legend Double Dagger 18.4 13.1 71 26 13 24.1 99.01     LegendNANA
01:00 Legend Double Dagger 18.7 13.0 69 25 6 24.1 98.98     Mainly Clear
02:00 Legend Double Dagger 17.4 12.8 74 23 8 24.1 98.97     LegendNANA
03:00 Legend Double Dagger 17.3 12.5 73 26 4 24.1 98.94     LegendNANA
04:00 Legend Double Dagger 17.7 12.7 72 22 8 24.1 98.96     Mainly Clear
05:00 Legend Double Dagger 15.9 12.1 78 25 12 24.1 98.93     LegendNANA
06:00 Legend Double Dagger 16.9 13.1 78 25 9 24.1 98.95     LegendNANA
07:00 Legend Double Dagger 19.3 13.8 70 26 9 24.1 98.99     Mostly Cloudy
08:00 Legend Double Dagger 22.4 13.9 58 27 9 24.1 98.99 26   LegendNANA
09:00 Legend Double Dagger 25.1 13.5 48 25 21 24.1 99.00 28   LegendNANA
10:00 Legend Double Dagger 26.8 11.9 39 24 22 24.1 98.92 29   Mainly Clear
11:00 Legend Double Dagger 27.5 12.2 38 27 14 24.1 98.91 30   LegendNANA
12:00 Legend Double Dagger 28.9 12.2 35 20 23 24.1 98.88 31   LegendNANA
13:00 Legend Double Dagger 29.2 11.6 33 22 30 24.1 98.77 31   Mostly Cloudy
14:00 Legend Double Dagger 29.5 12.7 35 21 24 24.1 98.71 32   LegendNANA
15:00 Legend Double Dagger 28.8 14.5 41 22 30 24.1 98.66 32   LegendNANA
16:00 Legend Double Dagger 27.8 15.3 46 21 26 24.1 98.63 32   Cloudy
17:00 Legend Double Dagger 17.6 14.9 84 23 18 9.7 98.69     Thunderstorms,Moderate Rain Showers
18:00 Legend Double Dagger 21.5 17.0 75 24 18 24.1 98.57 27   LegendNANA
19:00 Legend Double Dagger 21.4 16.9 75 18 10 24.1 98.40 27   Cloudy
20:00 Legend Double Dagger 20.4 16.9 80 16 13 24.1 98.34 26   LegendNANA
21:00 Legend Double Dagger 20.6 16.9 79 15 13 24.1 98.30 26   LegendNANA
22:00 Legend Double Dagger 19.0 16.8 87 27 23 24.1 98.32     Rain Showers
23:00 Legend Double Dagger 18.9 16.5 86 22 12 24.1 98.39     Rain

Notes on Data Quality.

Legend

  • E = Estimated
  • M = Missing
  • NA = Not Available
  • ‡ = Partner data that is not subject to review by the National Climate Archives
Date modified: